Dewpoint
56 40 26 25 20 25 23 27 28 46 48 51 51 50 47 47 50 48 64 65 66 66 68 68 71 71 71 71 71 72 72 72 71 71 70 69 68 67 67 66 67 66 66 65 64 65 65 64 63
41 28 25 23 18 17 22 26 40 44 47 52 51 51 50 49 56 62 63 66 66 66 67 67 71 71 71 71 71 71 71 71 71 70 69 69 67 66 67 67 67 66 64 64 62 64 63 63 62
25 21 24 21 19 14 25 26 32 37 50 50 50 52 50 52 59 62 64 66 66 66 66 69 70 71 71 71 71 71 71 70 70 69 69 68 66 66 66 66 67 66 65 64 63 62 63 62 61
16 17 20 19 17 18 22 23 16 28 49 51 50 47 53 59 61 62 66 66 65 65 66 70 70 70 71 71 71 71 70 69 69 68 68 66 66 66 67 67 67 66 63 63 61 61 60 60 61
11 15 17 17 16 18 20 18 14 19 46 46 49 46 52 61 63 65 66 66 65 66 66 68 69 70 70 71 71 70 70 69 68 68 68 67 67 67 66 65 67 66 63 62 61 60 60 59 59
10 10 7 7 11 12 9 6 5 11 22 36 47 48 56 64 64 65 66 66 66 66 67 68 70 70 69 70 70 69 69 68 68 68 67 67 67 66 65 66 65 65 63 62 61 60 59 58 58
10 8 -0 1 2 3 2 8 5 32 34 26 49 47 59 64 65 66 66 66 66 68 68 69 68 69 70 69 69 68 68 68 68 67 67 67 66 66 65 65 65 64 63 62 61 60 59 58 58
6 8 5 3 1 -0 2 5 4 41 54 55 57 49 56 63 65 66 67 66 67 67 68 69 69 68 68 68 68 68 68 67 67 67 66 66 65 66 66 66 65 64 63 61 60 60 59 59 58
5 6 2 0 0 2 6 5 4 45 57 59 61 59 60 64 66 66 66 66 67 67 68 69 68 69 68 67 68 68 68 67 67 66 66 64 62 61 62 64 64 64 63 62 61 61 61 60 60
5 5 0 2 2 8 8 5 5 35 53 57 58 62 63 64 65 64 64 64 65 65 67 68 68 68 68 66 68 68 67 65 64 63 63 63 63 61 60 63 64 63 63 63 62 61 61 58 53
5 5 3 8 12 12 7 7 10 23 15 40 52 60 62 63 64 63 64 64 63 64 66 67 67 68 67 67 68 68 66 65 63 63 63 63 62 61 60 61 60 61 61 58 58 58 54 55 54
11 14 16 14 12 4 7 10 10 19 21 28 58 61 61 62 63 63 63 63 63 65 65 66 66 67 67 67 66 67 64 64 62 62 63 62 61 61 61 59 61 61 59 59 57 55 56 55 54
14 17 12 4 6 1 7 7 8 28 30 55 61 61 61 62 62 63 64 63 64 65 65 66 66 66 65 66 65 66 65 63 63 62 62 61 60 60 60 60 59 59 59 57 55 55 54 54 54
19 9 2 1 4 1 7 16 21 32 32 36 37 50 59 61 61 62 63 64 65 65 65 66 65 66 65 65 66 65 64 64 62 62 62 62 60 60 59 59 59 58 57 56 54 54 54 53 54
15 12 5 1 3 -1 5 12 30 30 29 29 30 33 37 44 60 61 62 64 65 65 66 66 66 65 65 65 65 64 64 63 62 62 63 62 61 61 59 58 58 56 56 56 55 55 54 53 53
2 1 2 -1 4 1 5 14 32 30 28 28 28 29 31 34 39 44 56 62 64 65 66 66 65 65 65 64 65 64 64 63 62 62 61 61 60 60 59 57 57 55 55 55 54 54 53 53 52
-1 -3 -3 -4 6 1 2 7 32 30 29 28 27 28 29 31 34 37 42 48 64 65 66 66 65 65 64 64 64 64 64 63 62 62 61 61 60 59 57 56 56 57 54 54 54 54 54 53 53
-5 -6 -4 -3 7 0 2 31 31 30 29 29 28 28 29 29 30 35 41 43 57 65 66 66 65 66 64 64 64 64 64 63 63 62 61 62 60 58 56 55 56 55 54 54 54 54 54 53 52
0 3 3 2 6 4 23 29 28 28 28 28 28 27 27 29 29 33 37 40 44 61 65 65 65 65 64 64 63 63 62 63 62 62 63 62 60 58 56 54 56 56 54 54 55 54 54 52 53
10 7 11 8 12 8 24 27 27 26 25 27 27 27 27 28 29 31 34 36 39 43 49 63 65 64 65 64 64 63 62 64 62 62 63 62 61 59 55 54 55 56 54 56 55 54 52 52 52
17 14 15 14 16 2 10 23 23 25 25 25 26 27 28 27 29 30 31 34 36 38 41 46 54 64 64 64 63 63 63 63 62 62 62 62 61 60 56 55 56 56 55 55 55 54 53 50 52
9 20 19 18 14 1 7 -9 14 21 23 23 25 26 27 28 28 30 30 31 33 36 39 43 48 63 64 64 63 61 61 60 61 61 62 62 62 61 58 56 56 57 56 56 56 53 53 52 50
17 22 20 19 16 12 8 4 6 21 20 23 23 25 28 29 28 29 30 30 32 35 38 41 46 60 63 64 63 62 61 62 63 63 62 63 62 62 61 59 58 57 57 57 57 55 54 52 51
22 21 17 13 14 7 6 1 7 21 23 23 21 22 26 28 28 29 30 30 32 34 37 39 42 51 63 63 63 62 62 62 62 62 63 64 63 62 63 61 61 60 58 57 57 57 55 52 51
23 18 9 7 9 3 12 6 17 22 23 25 23 22 24 27 28 31 28 28 30 32 35 37 39 45 48 62 63 62 62 62 62 62 63 63 62 62 62 63 63 61 61 59 58 57 56 55 52
20 21 15 5 5 6 14 8 18 23 23 25 25 25 23 26 28 30 30 29 29 31 33 35 37 41 44 48 54 58 63 62 61 62 63 62 63 63 63 62 62 63 62 60 58 57 56 56 55
18 21 24 21 20 15 13 18 21 22 22 24 26 25 23 25 27 29 31 30 30 31 33 34 36 38 41 43 47 48 51 57 61 62 62 62 63 63 63 62 61 62 62 61 60 57 57 56 56
19 21 21 23 12 6 12 12 18 19 22 24 25 27 25 25 27 29 30 32 31 31 33 34 34 35 38 40 43 45 46 48 52 55 61 61 62 62 61 62 62 61 61 61 61 60 59 57 56
15 16 17 21 21 14 11 15 22 22 22 23 23 28 28 27 28 29 33 32 32 33 31 33 33 35 36 38 39 41 43 43 46 50 53 59 61 60 60 61 62 62 61 61 61 61 61 59 59
16 16 14 16 15 19 18 16 21 21 22 19 19 24 28 28 30 30 33 34 31 33 32 32 33 35 35 37 37 39 40 41 43 45 46 49 51 59 61 61 61 61 61 62 61 60 60 59 59
Lifted_Index
6 6 6 4 3 2 0 -1 -2 -2 -2 -2 -2 -2 -1 -1 -2 -2 -2 -2 -2 -1 -1 -1 -2 -3 -2 -2 -2 -1 -2 -2 -2 -2 -2 -1 0 1 1 2 2 2 2 3 3 3 3 4 5
7 6 5 4 2 1 0 -0 -1 -1 -2 -2 -2 -2 -2 -2 -2 -2 -2 -2 -2 -1 -1 -1 -2 -3 -2 -2 -2 -2 -2 -2 -2 -2 -1 -1 0 1 1 2 2 2 3 3 4 3 4 4 5
7 6 4 3 2 1 1 1 1 -0 -1 -2 -2 -2 -2 -2 -2 -2 -2 -2 -2 -2 -1 -2 -2 -3 -3 -2 -2 -2 -2 -1 -1 -1 -0 0 1 1 1 2 2 2 3 4 4 4 5 5 6
6 5 3 2 1 1 2 2 2 1 -1 -2 -2 -2 -2 -2 -3 -3 -3 -2 -2 -2 -2 -2 -2 -3 -3 -2 -2 -1 -1 -1 -0 0 0 1 1 1 2 2 2 2 3 4 5 5 6 6 7
5 4 3 1 1 2 3 4 4 2 -0 -1 -2 -2 -2 -3 -4 -4 -4 -3 -3 -3 -3 -3 -3 -3 -3 -2 -2 -1 -1 -0 0 1 1 1 1 2 2 2 2 3 4 5 6 6 7 7 8
4 4 2 1 2 2 3 5 4 3 1 -0 -1 -2 -3 -4 -5 -4 -4 -4 -3 -3 -4 -4 -3 -3 -3 -2 -1 -1 -0 -0 0 1 1 2 2 2 2 3 3 3 4 5 6 7 7 8 8
4 3 2 2 2 2 4 5 4 1 -0 -1 -2 -3 -4 -5 -5 -5 -5 -4 -3 -4 -4 -4 -4 -3 -3 -2 -1 -0 0 0 1 1 2 2 2 3 3 3 3 4 5 5 6 7 8 8 9
5 4 3 2 2 3 4 5 3 -1 -3 -4 -4 -4 -5 -5 -6 -5 -5 -4 -4 -4 -4 -4 -4 -4 -3 -2 -1 -0 0 1 1 2 2 3 3 3 3 3 3 4 5 6 6 7 8 8 8
6 4 3 3 3 3 4 5 3 -1 -4 -5 -5 -5 -6 -6 -6 -5 -5 -4 -4 -3 -4 -4 -4 -4 -3 -2 -2 -1 0 1 2 2 3 3 3 4 3 3 4 4 5 5 6 7 7 8 8
6 5 4 5 5 5 5 5 4 1 -2 -4 -5 -6 -6 -6 -6 -6 -5 -4 -4 -3 -3 -4 -4 -4 -3 -3 -2 -1 -0 1 2 3 3 3 4 4 4 4 4 5 5 5 6 6 7 8 8
6 6 6 6 6 6 6 6 6 4 1 -2 -4 -5 -6 -6 -6 -6 -5 -4 -4 -3 -3 -3 -3 -3 -3 -3 -3 -2 -0 1 2 3 4 4 4 4 4 4 4 5 5 6 6 7 8 8 9
6 7 7 8 8 7 6 7 6 5 3 -1 -4 -5 -6 -6 -6 -6 -5 -5 -5 -4 -4 -4 -4 -3 -3 -3 -2 -2 -1 1 2 3 4 4 4 4 4 4 5 5 5 6 7 7 8 8 9
7 7 8 9 8 8 7 7 7 6 2 -2 -4 -5 -5 -6 -5 -5 -5 -5 -5 -5 -4 -4 -4 -4 -3 -3 -2 -1 -0 0 2 3 4 4 4 4 5 5 5 5 6 7 7 8 8 9 9
8 8 8 9 9 8 7 7 7 6 3 -1 -4 -4 -5 -5 -5 -5 -5 -6 -6 -5 -5 -5 -4 -4 -3 -3 -2 -1 -0 0 1 2 3 4 4 5 5 5 6 6 6 7 8 8 8 8 9
8 7 7 8 9 9 7 6 7 7 5 1 -2 -3 -3 -4 -5 -5 -5 -5 -6 -5 -5 -5 -4 -4 -3 -3 -2 -1 -1 0 1 1 2 3 4 5 5 6 6 7 7 7 7 8 8 8 8
7 6 6 7 9 9 7 6 7 9 7 3 0 -1 -2 -3 -4 -4 -4 -4 -5 -5 -5 -5 -4 -4 -3 -3 -2 -2 -1 -0 0 1 1 3 4 5 6 6 6 7 7 7 7 7 7 7 8
6 5 5 7 8 9 7 7 8 10 8 5 2 0 -1 -2 -3 -3 -3 -4 -4 -5 -5 -5 -4 -4 -3 -3 -2 -2 -2 -1 -0 0 1 2 4 5 6 6 7 7 7 7 7 7 7 7 7
6 5 6 7 8 9 7 7 9 10 9 7 5 3 1 -0 -1 -2 -3 -3 -4 -4 -4 -4 -4 -4 -3 -3 -2 -2 -2 -1 -1 -0 0 1 2 3 5 6 7 7 7 7 7 7 7 7 7
7 7 7 8 9 9 8 8 9 10 10 9 8 6 4 2 2 1 -1 -2 -3 -4 -4 -4 -4 -3 -3 -3 -2 -2 -2 -1 -1 -0 -0 1 1 2 4 6 6 7 7 7 7 7 7 7 7
8 8 8 9 10 10 9 8 9 10 10 10 9 9 7 6 5 3 1 -1 -3 -3 -3 -3 -3 -3 -3 -3 -2 -2 -2 -1 -1 -1 -0 0 0 1 2 4 6 6 7 6 6 6 6 7 7
8 8 8 8 9 9 8 8 9 10 10 11 10 10 9 8 7 6 3 1 -2 -2 -3 -3 -3 -3 -3 -3 -2 -2 -1 -1 -1 -1 -0 -0 -0 0 1 2 4 5 6 6 6 6 6 6 6
6 7 7 7 7 7 7 6 7 8 9 10 11 10 10 9 8 8 6 4 1 -1 -2 -2 -3 -3 -2 -2 -2 -2 -1 -1 -1 -1 -1 -1 -1 -0 -0 1 2 3 4 5 5 5 5 5 5
6 6 6 6 5 5 4 4 5 6 7 9 10 11 10 10 9 9 8 7 5 2 0 -1 -2 -2 -2 -2 -2 -2 -1 -1 -1 -1 -1 -1 -1 -1 -0 -0 0 1 2 3 3 4 4 4 4
6 5 5 5 4 3 3 3 4 5 6 7 8 9 10 10 10 9 9 9 7 5 2 -0 -1 -2 -2 -2 -2 -2 -1 -1 -1 -1 -1 -1 -1 -1 -1 -1 -1 -0 1 1 2 2 3 3 4
6 5 4 3 2 2 3 3 4 5 6 6 7 8 8 9 9 9 9 9 8 6 3 1 -0 -1 -2 -2 -2 -2 -1 -1 -1 -1 -1 -1 -1 -1 -1 -1 -1 -1 -0 0 1 1 2 2 3
6 5 4 2 1 2 3 3 4 5 6 6 7 7 7 7 8 8 9 9 9 7 4 2 0 -1 -2 -2 -2 -2 -2 -1 -1 -0 -0 -1 -1 -1 -0 -1 -1 -1 -1 -0 -0 0 1 2 2
5 5 4 3 2 1 2 3 3 4 4 5 5 6 6 6 7 8 9 10 10 8 6 4 2 -0 -1 -2 -2 -2 -2 -1 -1 -0 0 -0 -0 -0 -0 -0 -1 -1 -1 -1 -1 -0 0 1 1
5 5 4 3 2 1 1 2 3 3 3 4 4 5 5 5 6 7 9 10 11 10 8 6 4 1 -0 -1 -2 -2 -2 -2 -1 -0 -0 0 1 1 1 0 -0 -0 -0 -1 -1 -1 -0 0 1
5 5 4 3 2 2 2 3 4 4 4 5 5 5 5 5 6 7 8 10 11 11 10 8 5 2 0 -1 -2 -2 -2 -2 -2 -1 -1 -0 1 1 1 1 0 0 0 -1 -1 -1 -1 -0 0
5 5 4 3 3 2 2 3 5 6 6 6 6 6 6 6 6 7 8 10 11 11 10 8 5 3 1 -1 -2 -2 -2 -2 -2 -1 -1 -0 0 1 1 0 0 0 0 -0 -1 -2 -1 -1 -0